GFSFLT1_sfc_temp_120.txt.gz
Temp
79 78 77 76 76 76 77 76 76 75 75 75 74 74 74 76 83 82 81 81 77 77 77 76 76 76 76 76 76 76 76 76 76
78 77 76 76 76 76 76 76 75 75 75 74 73 73 73 84 83 83 82 80 77 77 77 76 76 76 76 76 76 75 76 75 75
77 76 76 76 76 76 76 76 75 74 74 73 72 71 74 81 83 82 81 76 77 77 76 76 76 76 75 75 75 75 75 75 75
76 75 75 76 76 76 75 75 74 74 73 72 71 70 71 83 83 82 81 74 77 76 76 75 75 75 75 75 75 75 75 74 74
74 73 74 75 75 74 74 74 74 73 72 71 69 69 71 83 82 82 79 75 76 76 75 75 75 74 74 74 74 74 74 74 74
78 75 71 73 74 74 74 74 72 71 69 69 68 68 83 83 83 82 73 75 76 75 74 74 74 73 73 73 73 73 73 73 73
83 73 70 72 72 72 73 72 70 73 80 77 70 83 83 83 82 80 73 75 75 74 73 73 73 73 72 72 72 72 72 72 71
82 78 78 78 72 79 77 75 81 82 83 82 83 83 83 83 82 75 73 74 74 74 73 73 72 72 72 72 72 71 71 71 70
82 78 81 80 82 81 80 82 81 81 82 83 82 83 82 83 82 75 70 73 74 73 73 72 72 72 72 71 71 70 70 70 70
83 74 81 82 82 81 81 81 81 81 82 82 82 81 81 81 82 81 68 71 73 73 73 73 72 72 71 71 70 70 70 69 69
80 71 77 81 82 82 81 81 81 81 82 81 81 81 80 81 80 82 77 68 71 73 73 73 73 72 72 71 70 70 69 69 69
74 70 75 80 82 82 82 81 81 80 81 80 81 81 82 80 80 80 81 76 66 70 73 73 73 72 73 72 70 70 69 69 69
76 75 77 81 80 80 79 79 79 79 79 80 80 80 80 81 80 79 80 79 80 70 70 72 73 73 73 73 72 71 70 69 69
78 79 79 80 79 78 78 78 79 77 77 78 79 78 78 78 79 79 80 79 78 80 68 67 68 70 72 73 73 73 71 70 70
79 78 78 78 77 77 76 76 78 79 78 76 75 77 77 78 79 79 80 80 78 78 78 76 74 66 69 72 73 74 72 71 70
77 77 76 76 76 76 76 76 75 74 76 75 74 75 78 77 78 79 79 79 78 79 79 79 79 77 67 69 71 72 72 71 71
76 76 75 75 75 75 74 73 72 74 74 72 71 70 75 76 77 78 77 77 79 77 78 79 78 78 78 74 67 68 70 71 71
75 75 75 75 75 72 71 72 71 69 71 74 73 68 69 72 76 75 76 76 75 71 76 77 77 78 77 72 67 64 64 67 69
74 74 75 74 73 72 71 71 71 72 71 71 73 72 72 67 67 75 74 74 67 66 67 69 73 72 73 67 61 61 62 64 67
73 72 72 71 72 72 71 69 70 72 69 70 69 71 69 71 65 63 68 71 63 63 64 68 66 67 62 59 57 58 60 63 65

GFSFLT1_sfc_temp_123.txt.gz
Temp
79 78 78 77 76 76 77 76 76 76 75 75 75 76 76 76 82 81 80 79 77 78 77 77 77 76 76 77 77 76 76 76 76
79 77 76 76 76 76 76 76 75 75 75 74 75 74 74 84 83 81 79 78 78 78 77 77 76 76 76 76 76 75 76 75 75
77 76 76 76 76 76 76 76 75 74 74 74 73 73 73 83 82 80 78 76 77 77 77 76 76 76 76 76 76 75 75 75 75
76 75 76 76 76 75 75 75 74 74 73 72 72 71 72 83 81 80 78 75 77 77 76 76 76 75 75 75 75 75 75 75 75
74 73 74 75 75 74 74 74 74 73 72 71 71 71 72 83 82 79 77 76 77 76 75 75 75 75 74 74 74 74 74 74 74
77 74 72 73 74 74 74 73 72 71 70 70 70 69 83 83 81 78 74 76 76 75 74 74 74 74 73 73 73 73 73 73 73
81 72 70 72 72 72 73 72 70 72 76 75 70 81 83 82 80 76 73 75 75 74 74 73 73 73 73 72 72 72 72 72 72
76 77 76 75 72 76 75 73 77 81 80 78 83 84 83 82 80 73 73 75 75 74 73 73 73 72 72 72 72 71 71 71 71
78 79 80 78 80 78 77 79 82 82 83 83 83 83 83 82 80 73 71 73 74 74 73 73 72 72 72 72 71 71 70 70 70
79 82 82 81 82 81 80 82 81 82 83 83 83 82 82 82 81 77 68 71 73 73 73 73 72 72 72 71 70 70 70 70 69
79 81 82 82 83 82 82 81 81 81 83 82 82 81 81 81 81 78 73 69 71 73 73 73 73 73 72 71 70 70 70 69 69
78 79 81 82 83 82 82 82 82 81 82 81 81 82 82 81 80 80 78 72 67 70 73 73 73 73 72 72 71 70 70 69 69
76 74 78 82 82 82 81 80 80 79 79 80 80 81 81 81 81 80 79 78 77 69 70 72 73 73 73 73 72 71 70 70 70
76 72 76 82 81 80 79 78 79 77 78 78 79 79 79 79 80 80 79 79 78 78 68 67 68 70 72 74 74 73 72 70 70
77 76 79 81 79 78 77 76 78 78 77 77 77 77 78 78 78 78 80 79 77 77 77 71 70 66 69 72 73 74 73 72 71
79 80 80 79 77 77 77 76 75 75 77 74 73 75 77 76 76 76 77 78 78 78 78 77 77 72 67 69 71 72 73 72 70
80 78 76 77 76 76 76 75 72 73 74 71 71 67 71 72 75 77 77 77 78 77 77 78 77 76 75 70 67 68 71 72 72
75 75 75 77 76 74 74 73 71 69 71 72 69 65 65 69 73 74 75 75 74 76 75 73 74 76 72 71 67 64 65 67 70
74 75 76 75 75 73 72 73 73 73 68 70 72 71 71 66 65 71 73 74 72 71 70 69 68 72 71 65 59 60 61 64 67
74 74 74 73 73 73 72 71 71 72 70 70 68 71 71 71 65 62 67 69 68 65 62 65 69 69 64 61 57 58 60 63 64

GFSFLT1_sfc_temp_126.txt.gz
Temp
79 79 78 77 76 76 77 76 76 76 75 76 77 76 75 75 72 71 74 71 78 77 78 77 77 77 77 76 76 76 76 75 75
78 77 76 76 76 76 77 76 76 75 75 76 76 75 74 73 71 70 70 72 78 77 77 77 76 76 76 76 76 76 75 75 76
77 76 76 76 76 76 75 76 75 74 75 75 74 73 72 75 72 70 69 77 78 78 77 76 76 77 76 76 76 75 75 76 75
76 75 76 76 75 75 75 75 74 74 74 73 72 72 72 73 72 74 69 76 78 77 76 76 76 76 76 75 75 75 75 75 75
75 73 74 75 75 74 75 74 74 73 73 72 72 71 72 70 72 70 70 76 77 76 76 75 75 75 74 74 74 74 74 74 74
72 71 72 73 73 74 73 73 72 70 70 71 70 69 70 71 70 68 73 76 76 75 75 74 74 74 73 73 73 73 73 73 73
75 69 70 72 72 72 73 72 70 69 65 64 68 66 71 71 69 67 73 75 75 75 74 73 73 73 73 73 72 72 72 72 72
71 70 70 69 68 70 69 67 66 66 66 66 66 69 71 70 68 69 72 75 75 74 73 73 73 73 72 72 72 71 71 71 71
71 71 70 70 70 66 63 64 66 69 69 67 70 71 69 70 68 66 70 73 74 74 73 73 72 72 72 72 71 71 70 70 70
74 73 71 71 71 68 65 66 69 70 70 71 71 71 70 70 69 64 67 71 73 74 73 73 73 72 72 71 71 70 70 70 69
75 73 72 72 73 71 69 68 69 69 70 70 71 70 70 70 68 66 64 69 71 73 73 73 73 73 72 71 71 70 70 70 69
76 74 73 73 75 71 70 71 70 69 71 69 71 70 70 70 69 67 65 66 67 70 73 73 73 73 73 72 71 70 70 70 69
77 72 74 71 74 70 69 69 68 67 68 67 68 69 69 70 70 69 67 66 68 67 70 72 73 73 73 74 73 72 71 70 70
76 68 70 72 70 68 69 67 67 66 66 68 67 68 68 69 72 69 70 68 67 66 66 67 68 70 72 74 74 73 72 71 70
73 68 69 72 69 67 67 67 66 66 66 72 68 67 67 67 67 69 71 69 70 69 67 64 64 66 69 72 73 74 74 72 71
71 70 70 73 68 66 67 66 66 65 66 64 63 64 67 67 67 68 68 69 70 68 69 65 65 66 67 69 71 73 73 73 71
71 72 71 72 69 67 66 66 63 64 65 62 61 58 62 65 67 67 68 68 68 68 70 69 68 67 67 66 67 69 71 72 72
72 73 74 73 69 66 64 64 64 61 63 64 62 57 56 60 64 66 66 67 65 66 66 66 67 66 66 66 63 64 65 67 69
71 69 72 68 66 65 64 66 64 63 60 62 66 64 62 58 58 64 67 66 64 62 62 62 63 64 62 59 59 61 62 65 67
70 71 69 66 65 65 65 64 64 65 63 62 61 62 62 63 58 55 58 60 60 58 57 58 62 60 59 58 58 60 62 63 65

GFSFLT1_sfc_temp_129.txt.gz
Temp
79 78 77 76 76 76 77 77 76 76 76 77 77 76 75 72 69 68 73 75 78 78 77 77 77 77 76 77 76 75 76 76 76
78 77 76 76 76 76 76 76 76 75 75 76 76 75 73 70 67 67 72 76 77 77 76 76 77 77 76 76 76 76 76 75 74
77 76 75 75 76 76 76 76 75 75 75 75 74 73 72 71 67 67 74 76 77 78 77 77 76 76 76 76 76 76 75 75 74
76 75 75 75 76 76 76 75 74 75 75 74 73 72 71 68 68 71 71 75 77 77 76 76 76 76 75 75 75 75 75 75 74
75 74 74 75 75 75 75 74 74 74 73 73 72 70 69 66 67 67 70 76 77 77 76 75 75 75 74 74 74 74 74 74 74
72 72 72 73 74 74 73 73 73 71 71 71 70 68 68 67 66 66 73 76 76 76 75 75 74 74 73 73 73 73 73 73 73
73 70 70 72 72 72 73 72 70 68 64 65 68 65 65 66 65 66 73 75 75 75 74 73 73 73 73 72 72 72 72 72 71
70 70 70 69 68 69 68 66 64 62 63 64 63 65 65 65 65 69 72 75 75 74 73 73 73 73 72 72 72 71 71 71 71
71 71 70 68 66 64 63 60 62 64 65 63 64 65 65 64 63 66 70 73 74 74 73 73 72 72 72 72 71 71 70 70 70
71 72 70 68 66 64 60 60 62 63 65 65 67 66 64 64 64 63 67 71 73 73 73 73 73 72 72 71 71 70 70 70 69
70 70 69 68 68 65 64 62 63 65 65 66 68 66 65 64 63 62 64 69 71 73 74 73 73 73 72 72 71 70 70 70 69
71 69 69 69 69 66 65 64 65 65 66 66 67 67 64 64 63 63 62 65 67 70 73 73 73 73 73 72 71 71 70 70 70
73 71 70 70 70 69 67 65 64 64 65 64 65 66 66 65 64 64 64 63 66 67 70 72 73 73 73 74 73 72 71 70 70
74 73 71 69 70 68 68 63 64 63 63 65 64 64 65 65 68 64 64 63 64 64 66 67 68 70 72 74 75 74 72 71 70
74 74 71 71 70 66 65 65 63 64 64 68 65 64 64 65 64 66 68 65 66 64 64 64 64 66 70 72 73 75 74 72 71
73 73 71 71 70 67 68 63 64 62 63 62 60 62 63 64 64 65 66 66 67 66 65 63 63 64 66 69 71 73 73 72 72
74 73 71 70 67 66 65 64 61 61 62 60 58 56 60 62 64 64 66 66 66 66 66 64 63 63 63 63 67 69 71 72 72
73 73 71 69 70 67 65 64 62 59 59 62 60 55 54 57 61 63 64 65 63 63 63 64 64 63 62 63 62 64 66 68 69
71 72 71 71 69 67 64 64 62 62 59 60 63 61 60 56 56 61 62 63 63 60 59 59 60 62 62 59 59 61 63 66 68
70 71 69 70 69 68 65 63 63 62 60 60 59 60 59 59 56 55 57 59 59 58 56 56 57 59 59 58 58 60 63 64 66

GFSFLT1_sfc_temp_135.txt.gz
Temp
79 78 78 77 76 77 77 76 76 76 76 76 76 75 73 70 66 67 71 70 78 78 77 77 76 76 77 75 75 76 75 75 75
78 76 76 76 76 76 76 76 76 76 76 76 75 74 71 65 64 66 69 74 78 77 76 77 76 75 76 76 74 74 74 74 74
77 76 76 76 76 76 76 76 76 75 76 75 74 72 70 67 65 65 72 75 77 77 76 76 76 76 75 75 75 74 74 75 74
76 75 75 75 76 76 76 75 75 75 75 74 72 71 69 64 65 68 70 75 77 77 76 76 76 76 75 75 75 74 74 74 74
75 73 74 75 75 75 74 74 75 74 74 73 71 69 68 63 65 65 68 76 77 76 76 75 75 74 74 74 74 74 74 74 74
71 71 72 73 74 74 74 74 73 71 71 71 69 67 63 63 64 65 74 76 77 76 75 74 74 74 73 73 73 73 73 73 72
72 69 70 72 72 72 73 73 71 67 63 65 67 62 62 62 63 64 73 76 76 75 74 73 73 73 72 72 72 72 72 71 71
70 70 70 70 69 69 68 66 63 61 61 61 61 61 61 61 63 67 72 75 75 74 73 73 73 72 72 72 71 71 71 70 70
71 71 70 69 68 65 63 60 60 61 61 60 61 61 61 61 62 65 70 73 75 74 73 73 72 72 72 71 71 70 70 70 70
71 71 71 68 65 64 61 58 60 60 60 60 62 61 61 61 62 62 67 70 73 74 73 73 72 72 72 71 71 70 70 70 69
71 71 70 68 66 64 61 60 59 60 60 60 61 61 61 61 61 61 63 68 70 73 73 73 73 73 72 72 71 70 70 70 70
71 71 69 67 65 62 59 58 59 59 61 59 61 60 60 61 61 61 61 64 66 70 73 73 73 73 73 73 72 71 70 70 70
70 70 69 67 65 63 62 59 58 58 59 58 59 60 60 60 60 61 61 62 63 66 69 71 73 73 73 74 73 73 71 70 70
69 69 69 67 65 64 63 58 60 57 57 59 59 59 59 60 62 60 60 61 62 61 64 66 68 70 72 73 74 75 73 71 71
68 68 68 66 65 63 62 62 57 58 58 64 61 58 59 59 59 60 62 61 62 62 62 62 63 65 69 71 73 74 74 72 71
68 68 67 67 66 64 63 59 59 57 58 57 56 57 58 59 59 59 60 61 62 61 61 61 61 62 65 67 70 71 72 72 72
66 68 67 67 67 66 64 62 57 57 60 57 55 54 57 58 59 59 60 60 61 61 62 61 61 61 60 61 65 67 69 70 71
67 68 68 67 68 65 65 63 63 59 57 60 57 52 53 55 57 58 59 60 59 59 60 60 60 60 59 60 61 63 66 69 70
67 68 69 68 68 66 66 66 65 63 61 56 59 58 57 54 53 57 58 59 58 57 57 57 58 58 57 58 59 61 64 67 69
68 67 68 68 68 68 67 65 65 66 63 63 57 57 56 56 54 52 54 56 56 56 55 54 55 55 55 55 57 61 64 66 66

GFSFLT1_sfc_temp_138.txt.gz
Temp
79 78 77 77 76 76 76 76 76 76 76 76 76 75 73 70 65 66 72 72 77 77 77 76 76 76 76 75 76 75 75 76 75
78 77 76 76 76 76 76 76 76 76 76 76 75 73 70 65 64 65 69 75 77 77 77 76 76 77 76 76 76 75 75 75 75
77 76 76 76 76 76 76 76 76 76 76 75 74 71 69 66 64 66 73 76 77 77 76 76 76 76 76 76 75 74 75 75 74
76 76 75 76 76 76 75 75 75 75 75 74 72 70 68 64 64 70 72 74 77 77 76 76 76 76 75 75 74 75 74 75 74
75 73 74 75 75 75 74 75 75 75 74 72 71 69 68 63 64 65 71 77 77 76 76 76 75 75 74 74 74 74 74 74 74
71 71 72 73 74 74 74 74 73 72 71 71 69 67 62 62 63 64 74 77 77 76 75 74 74 74 73 73 73 73 73 72 72
72 69 70 73 72 72 73 73 71 67 64 65 66 62 61 62 63 64 74 76 76 75 74 74 73 73 72 72 72 72 72 71 71
69 69 69 69 68 68 68 67 62 61 62 61 61 61 60 61 62 66 72 75 76 75 74 73 73 72 72 72 72 71 71 70 70
70 70 70 67 67 65 63 62 60 60 61 61 60 60 60 60 62 63 70 73 75 74 73 73 72 72 72 72 71 70 70 70 70
71 70 70 68 65 64 62 60 60 59 60 60 61 60 60 61 61 62 66 70 73 74 74 73 73 72 72 72 71 70 70 70 70
71 71 70 68 67 64 62 61 60 59 59 59 60 60 60 60 61 61 62 68 70 73 74 74 73 73 73 72 71 70 70 70 70
70 71 70 69 67 64 60 59 58 58 59 59 60 60 60 60 60 60 61 63 66 70 73 74 73 73 73 73 72 71 71 70 70
69 69 70 70 67 63 62 60 58 58 58 57 58 59 59 59 59 60 60 61 62 65 69 71 73 73 73 74 73 73 72 71 70
70 69 69 68 66 63 63 60 61 59 56 58 58 58 58 59 61 59 59 60 61 61 64 65 67 69 72 73 74 75 73 72 71
70 69 69 67 65 63 63 62 58 60 57 62 59 57 58 58 58 59 61 60 60 61 61 61 62 64 68 70 72 73 73 72 71
69 68 67 67 64 64 64 62 61 56 58 56 55 57 57 57 58 58 58 59 60 60 60 60 60 61 65 67 69 71 72 72 71
69 69 67 66 65 64 63 64 58 57 60 56 54 53 56 56 58 57 59 58 59 60 60 60 60 60 60 60 64 65 68 70 71
64 67 68 66 65 63 64 64 63 61 57 58 56 51 52 53 56 56 57 58 57 58 59 59 59 59 58 60 60 63 65 69 70
64 65 67 66 67 64 63 66 65 66 61 56 58 57 56 53 52 55 56 57 57 57 56 57 57 57 57 58 59 61 64 68 69
64 65 66 66 67 66 64 64 65 67 65 63 57 56 55 54 53 51 53 54 55 55 55 55 55 55 55 55 57 61 64 66 67

GFSFLT1_sfc_temp_141.txt.gz
Temp
79 78 78 77 76 76 77 77 76 76 76 76 76 75 72 72 79 79 79 80 78 77 77 77 76 76 76 76 76 76 76 75 76
78 77 76 76 76 76 76 76 76 75 76 76 75 73 70 78 79 79 77 77 78 78 77 77 77 76 76 76 76 75 75 76 76
77 76 76 76 76 76 76 76 76 75 75 75 73 71 71 76 78 79 79 76 78 77 76 77 77 76 76 75 75 75 75 75 75
76 76 76 76 76 76 75 76 75 75 75 74 72 70 69 77 78 76 76 75 78 77 77 76 76 75 76 74 75 74 75 74 74
75 73 74 75 75 75 75 75 75 75 74 72 71 69 68 78 77 77 79 76 78 76 77 76 76 75 75 74 74 74 74 74 74
75 73 72 73 74 74 74 74 74 72 71 71 69 68 76 77 77 78 75 77 77 77 75 75 75 74 74 73 73 73 73 72 72
75 71 70 72 72 73 74 73 72 71 77 75 69 76 75 76 76 78 74 77 77 76 74 74 74 73 73 72 72 72 72 71 71
73 72 73 75 70 75 75 74 75 75 75 74 75 75 74 76 76 75 72 76 76 75 74 73 73 73 72 72 72 71 71 71 70
72 73 73 75 76 74 74 74 74 74 74 75 74 73 73 74 74 74 70 74 76 75 74 73 73 72 72 72 71 71 70 70 70
74 73 73 75 75 74 73 73 72 72 73 73 73 72 72 72 73 75 66 70 73 74 74 73 73 72 72 72 71 71 70 70 70
71 73 72 73 74 74 73 72 71 71 72 72 72 72 71 72 72 73 74 68 71 73 74 74 74 73 73 72 71 71 71 71 70
72 70 72 71 73 73 72 71 71 70 70 71 71 71 71 71 71 71 72 72 66 70 73 74 74 74 73 73 73 72 71 71 71
71 70 69 70 70 70 70 70 69 69 69 70 70 70 70 71 71 71 71 71 72 69 69 71 73 74 74 74 74 73 72 71 71
71 70 71 69 67 66 66 67 69 67 67 68 70 70 69 69 69 70 70 71 70 72 67 65 67 69 71 73 74 75 74 72 71
72 72 71 70 67 66 65 65 68 69 68 68 67 68 69 69 69 70 71 71 70 71 70 72 71 64 68 70 72 73 73 72 72
71 69 72 69 66 65 66 64 65 64 67 65 64 65 67 66 68 69 70 70 70 71 71 71 72 72 65 67 69 70 71 72 72
68 69 68 69 67 65 64 65 64 65 66 65 66 61 64 65 67 68 69 70 71 70 70 71 71 72 72 69 65 66 68 70 71
67 69 70 67 67 64 62 61 62 60 63 67 67 58 59 63 66 66 69 69 69 71 71 70 70 71 71 67 66 62 65 69 71
67 68 69 69 67 65 65 62 62 62 59 64 67 67 66 64 60 64 67 69 68 69 69 69 68 68 69 63 60 62 64 68 70
67 67 66 65 67 67 65 63 61 64 65 65 66 64 63 64 63 61 62 64 67 68 68 68 68 67 67 66 62 61 64 67 67

GFSFLT1_sfc_temp_144.txt.gz
Temp
79 79 78 77 76 77 77 77 76 76 76 76 76 75 74 74 83 83 81 82 78 78 77 76 76 77 76 76 76 76 76 76 75
78 78 77 76 76 76 77 76 76 76 76 76 75 74 73 84 84 83 83 81 78 78 77 77 76 76 76 76 76 75 75 75 75
78 77 76 76 76 76 76 76 76 75 75 75 74 72 72 81 84 82 80 77 77 77 78 76 76 76 75 75 75 75 75 75 74
77 76 75 76 76 76 76 76 75 75 75 74 72 71 72 83 84 83 83 75 77 77 77 76 76 76 75 75 75 75 74 74 74
75 73 74 75 75 75 75 75 75 75 74 72 71 69 70 84 82 83 82 76 78 77 76 76 76 75 74 74 74 74 73 73 73
78 75 72 73 74 74 74 75 74 72 71 71 69 68 83 84 83 84 74 77 77 76 76 75 75 74 73 73 73 73 72 72 72
82 74 70 72 72 73 74 74 72 71 81 78 70 81 83 83 82 83 74 77 77 76 75 74 74 73 73 72 72 72 72 71 71
79 76 73 77 71 78 77 76 79 81 83 82 82 83 84 83 82 77 73 76 77 75 74 74 73 73 72 72 72 71 71 71 70
81 80 76 77 79 80 78 80 81 81 82 83 83 83 82 82 82 78 70 74 76 75 74 73 73 72 72 72 71 71 71 70 70
80 79 77 79 79 81 78 81 82 81 82 82 82 81 81 81 81 82 68 71 74 75 74 74 73 73 72 72 71 71 71 71 70
78 79 75 79 79 80 79 80 81 81 82 81 81 80 80 80 80 81 77 69 71 74 75 74 74 73 73 73 72 71 71 71 71
77 78 78 75 79 78 78 80 81 80 80 81 81 81 81 79 79 79 80 76 67 70 74 75 74 74 74 74 73 72 71 71 71
76 75 76 77 74 77 74 77 78 78 78 79 79 79 79 80 79 79 79 79 79 70 70 71 73 73 74 74 75 74 72 72 71
73 73 74 74 73 71 73 73 73 74 76 77 79 78 78 78 78 78 78 78 78 79 68 67 67 69 71 73 75 74 74 72 72
71 74 71 73 70 69 71 73 74 73 73 74 76 77 78 78 77 78 78 78 77 78 77 76 73 65 68 70 72 73 73 72 72
77 70 71 71 69 69 70 72 71 70 71 71 71 74 75 75 76 77 78 77 77 78 78 78 78 76 67 68 70 71 72 72 72
76 77 74 71 68 68 67 69 67 70 71 65 69 65 69 71 73 76 76 77 77 77 77 77 77 78 78 74 66 67 69 70 71
74 75 76 72 70 66 66 67 66 67 69 67 65 64 63 67 74 73 75 75 76 76 77 77 78 78 78 72 69 63 65 68 71
73 73 74 75 73 66 67 66 66 66 61 62 68 69 72 63 66 72 74 76 75 76 76 76 77 77 77 70 63 62 64 68 71
72 72 72 73 72 72 67 66 65 66 63 63 63 66 65 65 67 68 69 74 75 76 76 76 76 75 75 74 67 62 64 68 69

GFSFLT1_sfc_temp_147.txt.gz
Temp
79 79 78 77 77 76 77 77 76 76 76 76 76 76 75 74 83 82 81 81 78 78 77 77 76 76 76 76 76 76 75 76 76
78 78 77 76 76 76 77 77 76 76 76 76 75 75 73 81 83 82 81 78 78 78 78 77 77 76 76 76 75 75 75 75 75
78 77 77 76 76 76 76 77 76 75 76 75 74 73 72 80 83 81 79 77 79 78 77 76 76 76 76 76 75 75 74 74 74
77 76 76 76 76 75 76 76 76 75 75 74 73 72 72 79 83 82 79 75 78 78 76 77 76 75 75 76 75 74 74 74 74
75 74 74 75 75 75 75 75 75 75 74 73 71 71 71 83 82 83 78 76 78 77 77 76 75 75 75 74 74 74 73 73 73
78 75 72 73 74 74 75 74 74 73 71 71 70 69 81 84 83 83 74 77 78 77 76 75 75 74 74 73 73 73 72 72 72
82 75 70 72 73 73 74 74 72 71 78 75 70 77 83 84 82 81 74 77 77 76 75 74 74 73 73 72 72 72 72 71 71
80 75 73 75 69 76 75 75 76 77 81 79 78 80 84 83 82 76 74 76 76 75 74 74 73 73 73 72 72 71 71 71 71
80 79 75 77 75 77 77 77 79 80 83 83 81 82 83 82 82 75 71 73 76 76 74 74 73 73 72 72 72 71 71 71 71
77 81 78 75 79 78 77 78 81 81 82 83 82 81 82 82 81 80 68 71 74 75 75 74 73 73 73 72 72 71 71 71 71
75 78 77 78 79 80 79 79 80 81 82 82 82 81 81 81 80 80 74 69 71 74 75 75 74 74 73 73 72 72 71 71 71
77 75 76 78 80 80 78 78 78 80 81 81 82 81 81 80 80 80 80 72 67 70 74 75 75 74 74 75 74 73 72 72 71
76 74 76 78 77 80 78 75 75 76 79 79 80 81 80 81 80 79 79 78 76 69 70 71 74 74 74 75 75 74 73 72 72
79 74 74 76 75 76 77 76 76 75 75 75 78 79 78 78 80 79 78 78 77 77 68 67 68 70 73 75 75 75 74 72 72
77 77 76 74 72 74 74 74 75 76 76 76 76 77 77 78 77 78 79 78 77 77 76 71 70 65 68 71 73 73 73 73 72
79 75 75 74 71 71 72 72 71 72 75 73 72 74 76 76 76 77 77 77 77 76 76 76 75 73 67 68 70 72 72 72 72
76 77 74 75 71 70 69 69 68 69 72 69 68 63 68 72 74 75 75 76 76 76 76 77 76 76 73 69 67 69 71 72 72
75 75 77 75 73 70 68 68 67 64 67 71 67 61 61 66 69 70 73 74 75 75 75 75 75 76 76 71 67 64 66 69 71
74 74 75 75 75 69 67 67 68 66 63 67 72 70 72 63 61 66 69 73 73 74 74 75 75 75 74 70 65 63 63 67 70
73 72 72 72 73 72 69 66 66 67 64 64 63 66 64 66 66 58 63 69 72 73 74 75 75 75 73 71 67 62 64 68 70

GFSFLT1_sfc_temp_150.txt.gz
Temp
79 78 77 77 76 76 76 77 77 76 76 76 77 76 75 74 73 76 76 73 78 78 77 76 77 76 76 76 76 76 76 75 75
78 77 76 76 76 76 76 77 77 76 76 76 76 75 73 72 76 74 71 73 78 78 77 77 76 76 76 75 75 75 75 75 75
77 77 76 76 76 76 77 77 77 75 75 75 75 73 72 72 73 75 74 75 77 78 76 77 76 76 76 75 75 75 75 74 75
77 76 76 76 76 76 76 76 76 75 75 74 73 72 71 68 72 77 73 75 78 77 76 76 76 75 76 75 74 74 74 74 74
75 74 74 75 75 75 75 75 75 75 74 72 71 71 69 67 74 75 73 76 78 77 77 76 75 75 74 74 74 73 73 73 72
73 72 72 73 74 74 74 74 74 72 71 71 70 69 68 69 73 70 74 76 78 77 76 75 75 74 74 73 73 72 72 72 72
76 71 70 72 72 73 74 74 72 70 67 66 68 65 67 71 71 70 74 77 78 76 75 74 74 73 73 72 72 72 71 71 71
75 69 70 70 68 71 72 71 70 68 69 67 65 66 68 70 70 71 73 76 78 77 74 74 73 73 73 72 72 71 71 71 71
76 71 70 71 70 70 71 70 70 70 70 70 69 69 69 70 69 69 70 74 77 77 75 74 73 73 73 72 72 71 71 71 71
70 73 71 70 72 72 71 72 72 72 72 73 72 72 70 71 70 68 68 71 74 76 76 74 74 73 73 73 72 72 71 71 71
70 70 71 72 73 73 72 73 73 74 74 72 72 71 71 70 70 68 66 69 71 75 76 75 74 74 74 73 73 72 72 72 72
72 72 71 72 73 73 72 73 74 73 76 71 72 71 70 70 70 68 67 67 67 70 75 75 75 74 75 75 75 74 73 72 72
69 71 70 71 71 71 70 72 72 72 73 71 70 70 70 70 70 70 68 67 69 67 70 72 74 75 75 75 76 75 73 73 72
70 69 69 72 70 70 69 71 72 71 70 71 69 68 69 70 73 69 69 67 68 67 67 67 68 70 73 75 75 75 74 73 72
69 68 70 69 69 69 69 71 72 72 72 73 72 66 68 69 67 68 71 69 68 67 67 66 67 66 69 72 74 75 74 73 72
69 69 68 70 68 69 71 69 69 69 72 67 66 67 66 66 66 67 66 68 69 68 67 65 65 66 67 69 71 72 73 73 72
71 67 70 69 68 67 68 69 67 68 66 66 65 59 62 63 66 66 68 68 68 68 69 67 67 66 66 66 67 69 71 73 73
69 70 68 69 69 67 67 67 67 64 66 68 62 58 58 58 62 64 66 68 67 70 69 70 70 69 65 65 65 64 67 71 73
68 68 69 68 69 67 67 68 68 67 63 63 68 61 64 59 55 61 65 69 69 69 69 70 69 67 67 64 63 62 64 69 72
67 67 67 67 68 66 67 65 64 66 65 63 63 63 61 61 58 53 59 65 68 69 70 70 70 71 69 66 63 63 65 69 70

GFSFLT1_sfc_temp_153.txt.gz
Temp
79 78 77 76 76 76 77 77 76 76 76 76 77 76 75 73 73 73 75 72 78 78 76 77 76 76 76 76 76 76 76 75 75
78 77 76 76 76 76 77 77 76 75 75 76 76 75 73 73 73 69 69 72 77 77 77 76 76 76 76 75 76 75 75 76 75
77 77 76 76 76 76 76 77 76 75 75 75 75 73 71 71 74 73 71 75 78 78 77 76 76 75 76 75 75 75 75 75 74
77 76 75 76 76 76 76 76 76 75 75 74 73 72 71 67 68 74 70 74 78 77 76 76 75 76 75 74 74 74 74 73 74
75 74 74 75 75 75 75 75 75 75 74 73 72 71 69 65 69 70 70 76 77 77 76 76 76 75 74 74 73 73 73 72 72
72 71 71 73 74 74 74 74 74 72 71 71 71 69 66 64 67 68 73 76 77 77 76 75 75 74 73 73 72 72 72 72 71
74 70 69 72 72 73 74 74 72 70 67 66 68 64 64 64 66 68 73 77 78 76 75 74 74 73 73 72 72 72 71 71 71
71 69 69 70 68 70 72 71 69 67 66 64 63 63 62 64 66 70 72 76 78 77 75 74 74 73 73 72 72 71 71 71 71
70 70 68 69 69 68 69 68 68 67 66 64 63 63 63 64 66 68 70 74 77 77 75 74 73 73 73 73 72 72 71 71 71
71 72 71 69 69 69 68 68 68 68 67 66 66 66 65 66 66 66 67 71 74 77 76 75 74 73 73 73 72 72 71 71 71
70 70 70 70 70 70 69 69 69 68 69 68 69 69 67 66 66 65 66 69 71 74 76 76 75 74 74 73 73 72 72 72 72
71 70 69 70 71 70 70 69 70 70 71 70 69 71 69 67 66 66 65 67 67 70 75 76 75 74 74 74 74 73 72 72 72
68 69 70 70 70 70 68 69 69 69 69 70 70 70 69 68 66 66 66 66 68 68 70 73 74 74 74 75 75 75 74 73 72
65 66 68 67 69 69 68 69 68 67 70 71 73 70 68 68 71 66 66 65 66 66 66 67 69 70 73 75 75 75 74 73 73
66 67 66 67 66 67 66 67 68 68 68 71 72 71 69 68 67 68 69 66 67 67 66 66 66 66 70 72 74 75 75 74 73
66 67 66 67 67 67 67 67 66 66 66 62 63 65 68 68 66 66 68 66 66 66 67 66 65 66 67 69 71 73 74 74 73
67 68 66 68 67 67 66 66 65 65 65 62 59 58 62 64 67 67 67 67 68 68 69 66 65 65 65 66 67 69 72 73 74
64 67 66 67 67 66 66 66 66 64 64 64 60 56 57 61 60 62 66 68 65 69 70 68 67 67 64 64 65 64 67 71 73
64 65 65 67 68 66 66 67 66 65 63 61 64 60 62 58 54 58 63 67 68 69 69 70 70 69 67 65 63 62 64 68 72
63 63 65 64 66 66 66 66 64 66 65 63 58 62 57 60 57 55 56 60 67 69 69 69 69 70 70 68 66 63 65 69 71

GFSFLT1_sfc_temp_156.txt.gz
Temp
78 77 76 76 76 76 77 76 76 76 76 76 77 76 74 73 72 70 74 70 78 78 77 77 76 76 76 76 76 75 76 75 75
78 76 76 76 76 76 76 76 76 75 75 76 76 75 72 69 68 68 69 70 77 77 76 76 76 76 75 76 76 75 76 74 74
77 76 76 76 76 76 76 76 76 75 75 76 75 73 71 69 67 67 68 74 78 77 76 76 75 75 75 75 74 75 75 74 75
77 76 75 76 76 76 76 76 75 75 75 74 73 72 70 65 66 71 68 74 78 77 76 75 75 75 74 74 74 74 74 73 74
75 74 74 75 75 75 75 75 75 74 74 73 72 71 69 64 66 68 67 75 77 77 76 76 75 75 74 73 73 73 72 72 72
72 71 71 73 74 74 74 74 74 72 71 71 71 69 64 63 65 66 72 76 77 77 76 76 75 74 74 73 72 72 72 72 71
72 69 69 72 72 72 74 74 72 70 67 66 68 63 63 62 64 65 72 76 77 77 75 75 74 74 73 72 72 72 71 71 71
69 68 68 68 68 70 71 71 69 67 65 64 63 62 61 61 64 68 71 76 77 77 75 74 74 73 73 72 72 72 71 71 71
68 68 68 68 69 69 69 68 67 66 65 64 63 62 61 61 63 64 69 74 77 77 75 74 74 73 73 73 72 72 71 71 71
68 71 69 68 69 70 69 69 68 66 65 64 63 63 62 62 64 63 66 70 74 76 76 75 74 74 73 73 73 72 72 71 71
69 69 70 70 70 70 70 70 69 67 67 65 65 65 64 63 64 65 66 68 71 75 76 76 75 75 74 74 73 72 72 72 72
68 69 69 69 71 70 69 68 69 68 68 66 67 67 67 65 64 65 66 67 67 71 75 76 75 75 75 75 74 73 72 72 72
63 66 68 70 69 69 68 68 67 68 67 67 67 68 69 68 65 65 66 66 67 68 70 73 75 75 75 75 75 75 73 72 72
62 65 67 67 69 69 68 67 67 67 67 67 68 68 68 69 69 65 65 64 66 66 67 67 69 71 73 75 75 75 74 73 72
62 63 64 66 66 67 68 67 67 67 67 68 67 68 70 68 68 66 67 66 65 65 66 67 67 66 70 73 74 75 75 74 73
63 63 62 63 65 66 66 66 66 66 66 64 64 63 63 68 69 68 66 65 66 65 65 65 67 67 66 69 71 73 74 74 73
63 63 63 64 65 64 65 65 65 65 65 63 60 58 60 61 64 65 66 65 67 65 66 66 66 66 64 65 67 69 72 74 74
61 62 63 64 62 63 64 65 64 63 62 64 59 56 56 59 61 62 66 65 64 65 66 67 68 67 65 64 65 64 67 71 73
60 61 61 62 63 62 64 65 65 64 62 62 63 58 59 55 55 58 62 64 65 65 66 68 68 68 67 64 63 63 64 68 72
58 59 60 60 61 62 61 64 64 65 64 62 58 61 55 56 54 54 55 57 64 67 67 67 67 68 67 67 65 62 65 69 71

GFSFLT1_sfc_temp_159.txt.gz
Temp
78 77 76 76 76 76 76 76 76 76 76 77 77 76 74 72 67 67 71 69 78 77 77 77 75 76 76 75 75 76 75 74 75
78 76 76 75 75 76 76 76 76 75 75 76 76 74 72 67 65 66 66 69 77 77 77 76 76 76 75 75 75 75 75 75 74
77 76 75 76 76 76 76 76 76 75 75 76 75 73 71 68 65 66 66 73 77 77 76 76 75 76 75 75 75 75 74 75 74
77 75 75 76 76 75 75 75 75 75 75 75 73 72 70 64 65 68 66 74 78 78 76 75 76 76 75 74 74 74 74 74 74
75 73 74 75 75 75 75 75 75 74 74 73 72 71 69 63 65 66 66 75 78 77 75 75 75 75 74 74 74 73 72 72 72
71 70 71 73 74 74 74 74 74 73 71 71 71 69 64 62 63 65 70 75 77 77 75 76 75 74 74 73 72 72 72 72 71
71 68 69 71 72 72 73 74 73 70 67 66 68 64 62 61 62 64 70 75 77 77 75 75 75 74 73 73 72 72 72 71 71
68 68 68 68 67 70 71 71 69 67 66 65 63 62 60 60 62 66 70 74 78 77 76 75 74 74 73 73 72 72 72 71 71
69 68 68 67 68 70 69 69 68 67 66 65 63 62 60 60 61 62 68 72 76 77 76 75 74 74 73 73 73 72 72 72 71
69 68 68 68 69 70 71 70 70 67 65 65 64 63 61 60 62 61 64 69 73 76 76 76 75 74 74 73 73 72 72 72 71
69 69 68 68 69 70 71 70 70 69 68 66 64 64 63 61 61 62 62 67 70 73 77 76 76 75 75 74 73 73 72 72 72
61 66 68 69 69 69 69 70 70 69 69 66 65 65 64 63 62 63 63 65 66 69 75 76 76 75 75 75 74 73 72 72 72
59 59 63 67 68 69 68 68 67 67 68 68 67 66 67 66 63 65 64 65 67 68 70 73 75 75 75 75 75 75 73 72 72
58 58 59 63 66 67 68 68 67 66 66 67 68 66 66 67 68 66 66 66 66 66 67 67 69 71 74 75 76 76 75 74 72
58 59 57 59 62 64 66 67 68 66 66 67 67 66 65 66 67 67 67 66 65 65 66 66 67 66 70 73 74 75 75 74 73
59 59 57 57 59 62 64 65 67 66 66 64 64 64 64 63 65 66 65 65 65 65 66 66 66 67 66 69 72 73 74 74 73
59 59 59 59 59 57 60 63 63 64 66 62 62 59 61 63 64 64 65 67 67 65 65 65 66 66 64 65 67 69 72 73 74
58 59 59 58 58 58 58 61 62 61 63 64 63 55 55 58 60 62 63 65 65 66 65 65 67 67 66 65 64 64 67 71 73
57 57 58 58 58 57 57 60 62 62 60 61 65 63 57 55 53 58 61 62 63 65 64 65 66 67 67 64 62 63 64 68 72
56 56 56 56 57 58 56 57 59 62 61 61 58 62 60 54 53 52 55 58 64 65 66 65 66 66 67 66 64 62 65 68 71

GFSFLT1_sfc_temp_162.txt.gz
Temp
78 77 76 76 76 76 76 76 76 76 76 76 76 75 74 72 66 66 69 68 77 77 77 75 76 76 76 75 75 75 75 75 75
78 76 75 75 76 76 76 76 76 75 75 76 76 74 71 66 64 64 65 68 77 77 77 76 76 76 76 75 76 75 75 75 74
77 76 75 75 76 76 76 76 76 75 75 76 75 73 71 67 64 65 65 72 77 77 76 76 76 75 76 75 75 75 75 74 74
77 75 75 75 76 75 75 75 75 75 75 75 73 72 70 64 64 67 64 72 77 77 75 76 75 76 75 74 74 74 74 74 74
73 73 74 75 75 74 74 75 75 74 74 73 72 71 70 62 63 64 64 73 78 78 76 75 75 75 75 74 74 73 73 73 72
70 70 71 73 74 74 74 74 74 73 71 71 71 69 63 61 62 63 69 73 77 77 75 75 75 75 74 73 73 72 72 72 72
70 68 68 71 72 72 73 74 73 70 67 67 68 64 62 61 62 63 69 73 77 77 76 75 75 74 74 73 72 72 72 72 71
69 68 68 68 66 69 70 70 70 67 66 65 64 63 61 60 61 65 69 73 76 77 76 75 75 74 74 73 73 72 72 72 72
69 69 68 67 67 68 70 70 70 67 66 66 64 63 61 60 61 61 67 71 75 77 77 75 75 74 74 74 73 72 72 72 72
66 68 68 68 68 68 70 71 71 69 68 66 65 64 62 60 61 61 64 67 72 75 77 76 75 75 74 74 73 73 72 72 72
60 64 67 68 69 69 69 69 70 70 70 68 66 65 64 62 61 61 63 66 69 73 76 77 77 75 75 75 74 73 72 72 72
57 57 60 65 67 69 69 69 69 69 70 68 68 66 64 63 62 63 64 64 65 69 74 75 76 76 76 75 75 74 73 73 72
56 55 56 60 63 66 68 68 68 67 68 68 68 67 66 65 63 63 63 63 66 66 70 72 74 75 76 76 75 75 74 72 72
55 56 56 57 58 60 63 65 66 66 66 67 67 67 67 65 66 63 63 64 65 67 67 67 69 71 74 76 76 76 74 73 72
55 56 54 55 55 56 59 61 64 65 65 66 66 66 66 66 65 66 65 65 65 66 66 67 68 66 70 73 75 76 75 75 73
56 56 54 54 54 55 57 59 60 61 63 63 63 64 65 64 64 65 66 66 64 64 65 66 67 68 67 70 72 74 74 74 74
56 56 55 54 55 53 54 56 58 60 60 59 58 55 59 63 63 63 63 63 63 63 65 65 65 66 67 67 68 70 72 74 74
55 56 54 54 54 54 52 55 56 56 59 60 59 53 54 56 60 63 63 64 62 64 65 65 65 65 66 65 65 64 68 71 74
54 55 55 55 55 53 52 55 55 55 55 57 62 62 56 54 52 56 60 63 62 63 63 64 65 66 66 64 63 62 64 68 72
53 53 54 53 54 54 52 52 53 56 56 57 58 59 60 61 56 54 53 58 61 63 63 63 63 64 65 66 64 62 64 68 71

GFSFLT1_sfc_temp_168.txt.gz
Temp
78 78 77 76 77 77 77 77 76 76 76 76 76 75 74 72 83 83 80 83 78 78 76 77 76 77 76 77 76 76 76 76 75
77 77 76 76 76 77 77 76 76 76 76 76 76 75 73 80 83 83 82 82 77 78 77 76 76 76 76 76 76 75 75 75 75
77 76 76 76 76 76 76 76 76 76 75 76 75 73 71 77 83 82 82 78 77 78 76 76 76 76 76 75 75 75 75 75 74
76 76 76 76 76 75 75 76 76 75 75 75 74 72 71 81 83 83 83 74 76 78 77 76 76 75 75 76 75 75 75 75 74
73 73 74 75 75 75 75 75 75 75 74 74 73 71 70 81 82 82 83 74 76 78 76 76 76 76 75 75 75 75 74 74 74
79 73 70 72 74 74 74 74 74 73 72 72 71 69 80 83 83 83 76 74 75 77 76 76 76 76 75 74 74 74 74 73 73
74 70 68 71 71 72 74 74 73 71 82 80 71 79 82 84 83 83 73 74 76 77 77 76 75 76 75 74 74 74 73 73 73
82 81 79 75 70 77 77 78 80 81 82 82 82 79 84 84 83 81 72 73 75 76 77 76 75 75 75 75 74 74 74 73 73
80 81 81 80 80 74 74 75 78 79 81 83 81 82 81 83 83 82 69 71 74 76 77 76 75 75 75 75 74 74 73 73 73
77 78 79 80 82 80 79 76 74 75 77 79 80 80 82 83 83 83 67 68 71 74 76 77 76 75 75 75 74 73 73 73 73
74 75 76 77 79 80 80 80 78 73 74 74 77 79 80 81 81 82 81 67 68 72 75 76 77 76 76 76 74 74 74 73 73
72 72 73 75 77 78 78 79 79 79 78 74 74 76 77 77 78 80 82 79 65 69 73 75 76 76 76 76 75 74 74 73 73
69 70 71 74 75 75 75 76 76 77 77 76 77 76 73 75 77 77 79 81 80 69 69 71 74 75 76 76 77 76 74 73 73
68 69 70 72 72 72 72 73 73 72 74 76 76 75 74 69 71 72 76 78 79 79 70 67 69 71 73 76 77 76 75 73 73
65 67 68 69 69 69 70 70 72 71 72 73 74 75 76 76 71 68 71 75 75 76 76 75 68 66 70 73 75 76 75 74 73
64 65 66 67 67 68 70 70 69 69 71 68 68 71 73 74 76 76 75 71 71 74 70 72 72 76 68 69 72 74 75 75 74
63 64 64 65 65 66 66 67 66 68 70 65 65 62 68 73 75 77 77 74 71 70 72 71 68 67 69 72 68 70 73 75 75
62 62 63 64 64 64 65 65 64 63 67 68 64 60 61 68 75 75 76 76 72 68 70 71 68 67 68 69 68 66 69 73 75
59 59 60 62 63 63 64 66 65 65 62 66 67 66 66 60 61 72 74 75 70 69 67 67 67 68 70 66 65 63 65 69 73
55 55 58 58 61 63 63 63 63 65 63 63 63 64 64 65 61 59 65 73 74 71 67 66 66 67 67 66 64 61 64 67 70

GFSFLT1_sfc_temp_171.txt.gz
Temp
78 78 77 77 77 77 77 77 77 76 76 76 76 75 74 72 81 83 81 80 78 77 77 77 77 76 76 76 76 76 76 76 76
78 77 77 76 76 77 77 76 76 76 76 76 76 75 73 78 83 83 82 81 78 78 77 76 76 76 76 76 76 76 76 76 76
78 77 76 76 76 76 77 76 76 76 75 76 75 74 72 77 80 82 82 76 77 78 77 76 76 76 76 75 76 76 76 75 74
76 76 76 76 76 76 76 76 76 75 75 75 74 72 71 76 82 83 82 74 77 78 77 76 76 76 76 76 75 76 75 75 75
74 74 74 75 75 75 75 75 75 75 75 74 73 71 70 77 80 82 82 75 77 77 78 77 76 76 76 76 75 75 75 74 74
78 74 71 72 74 75 75 75 74 73 72 72 71 70 77 80 81 83 76 76 77 77 77 76 76 76 76 75 75 74 74 74 74
78 72 70 71 71 72 73 74 73 72 79 78 71 76 78 81 82 83 73 76 77 77 77 76 76 76 75 75 75 74 74 74 73
82 82 82 81 71 78 76 77 77 79 80 81 78 76 80 83 83 82 73 75 77 77 76 76 75 75 75 75 75 74 74 73 73
80 81 81 81 82 81 79 77 77 77 79 80 80 77 78 80 83 83 70 73 76 76 77 76 76 75 75 75 75 75 74 73 74
77 78 79 79 81 82 81 81 79 76 77 78 78 79 78 79 79 81 68 71 73 75 76 77 77 76 75 75 75 74 74 74 73
74 75 76 77 78 79 80 81 80 80 78 76 77 77 76 78 78 78 75 69 71 73 75 76 77 77 76 76 75 74 74 74 73
71 71 72 74 77 77 77 78 78 79 80 79 77 76 77 77 77 78 77 73 67 70 74 75 76 76 77 77 76 75 74 73 73
69 69 70 73 74 74 74 75 74 75 77 78 77 77 77 77 76 77 77 76 78 68 69 72 74 75 76 77 77 76 74 73 73
67 67 69 71 71 71 71 71 72 71 72 74 76 77 75 75 75 74 74 75 73 75 68 67 69 71 74 76 77 77 74 73 73
66 66 67 68 68 68 69 68 70 70 70 73 73 73 74 75 76 75 75 74 73 74 74 69 69 67 70 73 75 76 75 74 73
65 65 65 67 66 67 68 68 67 67 70 67 67 68 70 71 73 75 76 74 72 72 70 69 72 71 67 69 72 74 75 74 74
63 63 63 64 64 65 66 65 64 66 68 64 64 59 64 70 72 73 73 75 76 73 73 72 71 70 69 66 68 70 73 74 75
60 60 61 61 60 60 63 64 63 61 65 67 63 57 57 63 70 72 74 74 74 75 73 71 71 70 69 67 65 65 67 71 74
58 57 56 57 59 57 60 64 63 63 60 64 67 65 64 56 55 66 69 72 74 74 72 70 70 70 69 67 65 63 64 68 72
56 54 53 53 55 56 59 62 62 63 61 61 61 62 62 62 57 54 60 67 70 72 72 70 69 69 69 68 65 62 64 67 69

GFSFLT1_sfc_temp_174.txt.gz
Temp
78 78 77 76 76 76 77 77 76 76 76 76 76 75 74 73 70 72 75 73 77 77 78 77 77 76 77 76 76 76 76 76 76
78 77 76 76 76 76 77 77 76 76 75 76 76 75 73 70 68 72 72 72 78 78 77 76 77 76 76 77 76 77 76 76 75
77 77 76 76 76 76 76 76 76 76 75 76 75 74 71 72 69 71 72 75 78 78 78 76 76 76 77 76 76 76 76 76 75
76 76 76 76 76 76 75 76 75 75 75 75 74 72 71 68 70 74 72 74 78 78 77 76 76 76 76 77 75 76 75 75 75
74 73 73 75 75 75 75 75 75 75 74 74 73 71 70 66 69 72 72 75 78 78 78 76 76 76 76 76 76 76 75 75 74
73 71 72 73 73 74 75 75 74 73 72 72 71 70 69 68 71 73 74 76 78 78 77 77 76 76 76 75 76 76 75 74 74
72 69 70 72 72 72 73 74 73 71 72 71 70 70 70 71 73 75 74 76 78 78 77 76 76 76 75 75 75 75 75 74 74
68 67 68 66 66 69 71 71 71 71 72 73 72 70 70 73 74 76 73 76 79 78 77 76 75 75 75 75 75 75 75 74 74
64 65 66 67 68 68 69 70 72 71 71 71 74 72 72 74 77 76 71 74 78 78 77 76 76 75 75 75 75 75 74 74 73
62 63 64 64 65 66 66 68 69 69 69 70 70 70 72 75 76 77 68 71 75 77 77 77 77 76 76 75 75 74 74 74 74
61 61 62 62 63 64 65 65 67 68 68 69 70 70 69 69 74 76 75 69 72 75 77 77 77 77 77 76 75 74 74 74 74
60 59 59 61 63 64 64 64 65 64 68 68 68 70 70 69 68 70 73 70 67 71 76 76 76 76 77 77 76 75 74 74 73
59 58 59 61 61 61 61 61 61 61 62 63 67 70 70 69 70 70 68 69 72 68 71 73 75 75 76 77 77 76 74 73 73
58 58 58 60 59 59 60 61 59 59 60 62 65 64 65 66 71 67 68 67 68 67 66 67 69 72 74 76 77 77 75 73 73
57 57 57 58 58 57 58 58 59 59 59 66 66 61 61 62 62 64 68 68 68 67 67 65 66 66 70 73 75 76 75 74 73
54 54 55 57 56 56 58 57 57 56 58 56 58 60 61 64 65 66 67 67 67 67 68 67 65 67 66 69 72 74 75 74 74
56 54 53 54 54 54 56 56 55 55 57 54 53 51 55 58 62 64 66 67 69 68 67 68 67 66 65 65 67 69 73 75 74
54 53 51 51 52 52 54 57 58 54 55 56 53 50 48 53 57 59 61 62 63 67 68 66 68 67 67 66 64 64 67 71 74
53 51 50 49 50 53 52 59 58 58 55 54 60 55 58 53 50 55 60 62 63 62 63 66 68 69 66 64 62 62 64 68 72
51 52 52 49 52 53 54 54 57 58 53 54 52 54 57 58 54 51 56 56 60 62 62 61 61 63 65 63 63 61 64 67 70